Location: ?astrovice
(49.6513°N, 14.9287°E)
Time: 14:32:06
(UTC+00:00)

FO-99 - Pass Details

Date: 25 October 2021
Orbit: 469 x 501 km, 97.2° (Epoch: 30 November)

Event Time Altitude Azimuth Distance (km) Brightness Sun altitude
Exits shadow 18:02:30 15° 9° (N) 1,454 ? -22.0°
Drops below altitude 10° 18:03:17 10° 3° (N) 1,749 ? -22.1°
Sets 18:05:25 0° 355° (N) 2,616 ? -22.5°
